FW5670 Spring Valley NY US current weather conditions

sailwx.info

Wind from 220

Air temperature -1.7° C
Dewpoint -3.7° C

Last reported at 2019-Dec-13 12:05 UTC.
Time now 2019-Dec-13 12:45 UTC

Location: N 41°09' W 074°03'.
View on Google Maps.

See reports from other nearby stations

  
Tides and Currents Weather Stations Pressure Air Temp Water Temp Dewpoint Dewpoint Depression Visibility Wind Speed Wind Dir Waves Ship Positions
date/time (UTC)wind fromknots sea level pressurealtimeterstation pressurevisibilityair tempwater tempwave heightnotes
2019-Dec-13 12:05 220 -1.7
2019-Dec-13 11:59 220 -1.7
2019-Dec-13 11:53 220 -1.7
2019-Dec-13 11:48 221 -1.7
2019-Dec-13 11:43 231 -1.7
2019-Dec-13 11:37 328 -1.7
2019-Dec-13 11:26 328 -1.7
2019-Dec-13 11:21 328 -1.7
2019-Dec-13 11:15 328 -1.7
2019-Dec-13 11:10 328 -2.2
2019-Dec-13 11:05 328 -2.2
2019-Dec-13 11:00 328 -2.2
2019-Dec-13 10:47 328 -2.8
2019-Dec-13 10:42 328 -2.8
2019-Dec-13 10:36 328 -2.8
2019-Dec-13 10:31 328 -2.8
2019-Dec-13 10:18 328 -2.8
2019-Dec-13 10:13 327 -2.8
2019-Dec-13 10:08 162 -2.8
2019-Dec-13 10:02 168 -2.8
2019-Dec-13 09:51 168 -3.3
2019-Dec-13 09:45 168 -3.3
2019-Dec-13 09:40 168 -3.3
2019-Dec-13 09:35 168 -3.3
2019-Dec-13 09:20 221 -3.3
2019-Dec-13 09:15 098 -3.3
2019-Dec-13 09:10 098 -3.3
2019-Dec-13 08:59 098 -3.3
2019-Dec-13 08:54 098 -3.3
2019-Dec-13 08:49 098 -3.3
2019-Dec-13 08:44 098 -3.3
2019-Dec-13 08:38 098 -3.3
2019-Dec-13 08:33 098 -3.3
2019-Dec-13 08:28 098 -3.3
2019-Dec-13 08:23 098 -3.3
2019-Dec-13 08:17 098 -3.3
2019-Dec-13 08:12 098 -3.3
2019-Dec-13 08:07 098 -3.3
2019-Dec-13 08:01 098 -3.3
2019-Dec-13 07:56 098 -3.3
2019-Dec-13 07:51 098 -3.9
2019-Dec-13 07:45 098 -3.9
2019-Dec-13 07:40 098 -3.9
2019-Dec-13 07:35 098 -3.9
2019-Dec-13 07:30 098 -3.9
2019-Dec-13 07:19 098 -3.9
2019-Dec-13 07:09 098 -4.4
2019-Dec-13 07:03 098 -4.4
2019-Dec-13 06:58 098 -4.4
2019-Dec-13 06:53 098 -4.4
2019-Dec-13 06:47 098 -4.4
2019-Dec-13 06:42 098 -4.4
2019-Dec-13 06:37 098 -3.9
2019-Dec-13 06:32 098 -3.9
2019-Dec-13 06:26 098 -3.9
2019-Dec-13 06:21 098 -3.9
2019-Dec-13 06:16 098 -3.9
2019-Dec-13 06:11 098 -3.9
2019-Dec-13 06:05 098 -4.4
2019-Dec-13 06:00 098 -4.4
2019-Dec-13 05:55 098 -4.4
2019-Dec-13 05:49 098 -4.4
2019-Dec-13 05:44 098 -4.4
2019-Dec-13 05:39 098 -4.4
2019-Dec-13 05:34 098 -3.9
2019-Dec-13 05:28 098 -4.4
2019-Dec-13 05:23 098 -3.9
2019-Dec-13 05:18 098 -3.9
2019-Dec-13 05:07 098 -3.9
2019-Dec-13 05:02 098 -3.9
2019-Dec-13 04:56 098 -3.9
2019-Dec-13 04:51 098 -4.4
2019-Dec-13 04:46 074 -4.4
2019-Dec-13 04:41 074 -4.4
2019-Dec-13 04:35 074 -4.4
2019-Dec-13 04:30 074 -4.4
2019-Dec-13 04:25 074 -3.9
2019-Dec-13 04:20 074 -3.9
2019-Dec-13 04:14 074 -3.9
2019-Dec-13 04:09 074 -3.9
2019-Dec-13 04:04 074 -4.4
2019-Dec-13 03:58 074 -4.4
2019-Dec-13 03:53 074 -4.4
2019-Dec-13 03:48 074 -4.4
2019-Dec-13 03:43 074 -4.4
2019-Dec-13 03:37 074 -4.4
2019-Dec-13 03:32 074 -3.9
2019-Dec-13 03:27 074 -3.9
2019-Dec-13 03:22 074 -3.3
2019-Dec-13 03:16 074 -3.9
2019-Dec-13 03:11 074 -3.9
2019-Dec-13 03:06 325 -3.9
2019-Dec-13 03:00 325 -3.9
2019-Dec-13 02:55 326 -4.4
2019-Dec-13 02:43 325 -3.9
2019-Dec-13 02:38 326 -3.9
2019-Dec-13 02:33 325 -3.9
2019-Dec-13 02:27 325 -3.9
2019-Dec-13 02:22 322 -3.9
2019-Dec-13 02:17 322 -3.9
2019-Dec-13 02:12 322 -3.9
2019-Dec-13 02:06 322 -3.9
2019-Dec-13 02:01 322 -3.3
2019-Dec-13 01:56 322 -3.3
2019-Dec-13 01:50 322 -3.9
2019-Dec-13 01:45 322 -3.3
2019-Dec-13 01:40 322 -3.9
2019-Dec-13 01:35 322 -3.3
2019-Dec-13 01:29 322 -3.3
2019-Dec-13 01:24 322 -3.3
2019-Dec-13 01:19 322 -3.3
2019-Dec-13 01:14 322 -3.3
2019-Dec-13 01:08 322 -2.8
2019-Dec-13 01:03 322 -2.8
2019-Dec-13 00:58 322 -2.8
2019-Dec-13 00:53 322 -2.8
2019-Dec-13 00:48 322 -2.8
2019-Dec-13 00:43 322 -2.8
2019-Dec-13 00:38 322 -2.8
2019-Dec-13 00:33 322 -2.8
2019-Dec-13 00:28 322 -2.2
2019-Dec-13 00:23 322 -2.8
2019-Dec-13 00:08 322 -2.8
2019-Dec-13 00:03 322 -2.8
2019-Dec-12 23:57 322
2019-Dec-12 23:45 322 -2.8
2019-Dec-12 23:39 322 -2.8
2019-Dec-12 23:34 322 -2.8
2019-Dec-12 23:28 322 -2.8
2019-Dec-12 23:23 322 -2.8
2019-Dec-12 23:18 322 -2.8
2019-Dec-12 23:13 322 -2.8
2019-Dec-12 23:08 322 -2.8
2019-Dec-12 23:03 322 -2.8
2019-Dec-12 22:58 322 -2.8
2019-Dec-12 22:53 322 -2.8
2019-Dec-12 22:48 322 -2.8
2019-Dec-12 22:43 322 -2.8
2019-Dec-12 22:38 322 -2.8
2019-Dec-12 22:33 322 -2.8
2019-Dec-12 22:28 322 -2.8
2019-Dec-12 22:23 322 -2.8
2019-Dec-12 22:18 322 -2.8
2019-Dec-12 22:13 322 -2.8
2019-Dec-12 22:08 322 -2.8
2019-Dec-12 22:03 322 -2.8
2019-Dec-12 21:58 322 -2.2
2019-Dec-12 21:53 322 -2.2
2019-Dec-12 21:48 322 -2.2
2019-Dec-12 21:43 322 -2.2
2019-Dec-12 21:38 322 -2.2
2019-Dec-12 21:33 322 -2.2
2019-Dec-12 21:28 321 -2.2
2019-Dec-12 21:23 321 -1.7
2019-Dec-12 21:18 321 -1.7
2019-Dec-12 21:05 321 -1.7
2019-Dec-12 20:59 321 -1.7
2019-Dec-12 20:54 321 -1.7
2019-Dec-12 20:49 321 -1.7
2019-Dec-12 20:43 321 -1.7
2019-Dec-12 20:38 321 -1.1
2019-Dec-12 20:33 321 -1.1
2019-Dec-12 20:28 321 -1.1
2019-Dec-12 20:22 321 -1.1
2019-Dec-12 20:17 321 -1.1
2019-Dec-12 20:12 321 -1.1
2019-Dec-12 20:07 321 -0.6
2019-Dec-12 20:01 321 -0.6
2019-Dec-12 19:56 321 -0.6
2019-Dec-12 19:51 321 -0.6
2019-Dec-12 19:45 321 -0.6
2019-Dec-12 19:40 321 -0.6
2019-Dec-12 19:35 321 -0.6
2019-Dec-12 19:30 324 -0.6
2019-Dec-12 19:24 324 -0.6
2019-Dec-12 19:19 324 -0.6
2019-Dec-12 19:14 324 -0.6
2019-Dec-12 19:09 324 -0.6
2019-Dec-12 19:03 324 -0.6
2019-Dec-12 18:58 323 -0.6
2019-Dec-12 18:52 324 -0.6
2019-Dec-12 18:47 324 -0.6
2019-Dec-12 18:42 324 -0.6
2019-Dec-12 18:37 324 -0.6
2019-Dec-12 18:31 325 -0.6
2019-Dec-12 18:26 330 -0.6
2019-Dec-12 18:21 173 -0.6
2019-Dec-12 18:16 173 -0.0
2019-Dec-12 18:10 173 -0.0
2019-Dec-12 18:05 173 -0.0
2019-Dec-12 18:00 178 -0.0
2019-Dec-12 17:54 178 -0.0
2019-Dec-12 17:49 179 -0.6
2019-Dec-12 17:44 169 -0.6
2019-Dec-12 17:39 169 -0.6
2019-Dec-12 17:33 247 -0.6
2019-Dec-12 17:28 158 -0.6
2019-Dec-12 17:23 162 -0.6
2019-Dec-12 17:18 172 -0.6
2019-Dec-12 17:12 172 -0.6
2019-Dec-12 17:07 214 -0.6
2019-Dec-12 17:02 214 -0.0
2019-Dec-12 16:56 296 -0.0
2019-Dec-12 16:51 297 -0.6
2019-Dec-12 16:46 297 -0.6
2019-Dec-12 16:41 297 -1.1
2019-Dec-12 16:35 206 -1.1
2019-Dec-12 16:30 176 -1.1
2019-Dec-12 16:25 177 -1.1
2019-Dec-12 16:20 201 -1.1
2019-Dec-12 16:15 210 -1.1
2019-Dec-12 16:10 159 -1.1
2019-Dec-12 16:05 214 -1.7
2019-Dec-12 16:00 217 -1.1
2019-Dec-12 15:55 139 -1.1
2019-Dec-12 15:50 139 -1.1
2019-Dec-12 15:45 165 -1.7
2019-Dec-12 15:40 193 -1.7
2019-Dec-12 15:35 199 -1.7
2019-Dec-12 15:30 151 -1.7
2019-Dec-12 15:25 151 -1.7
2019-Dec-12 15:20 185 -1.7
2019-Dec-12 15:15 205 -1.7
2019-Dec-12 15:10 205 -2.2
2019-Dec-12 15:05 300 -2.2
2019-Dec-12 15:00 233 -2.2
2019-Dec-12 14:50 216 -2.2
2019-Dec-12 14:45 333 -2.2
2019-Dec-12 14:40 338 -2.2
2019-Dec-12 14:35 118 -2.2
2019-Dec-12 14:30 118 -2.8
2019-Dec-12 14:25 118 -2.2
2019-Dec-12 14:20 118 -2.2
2019-Dec-12 14:15 118 -2.8
2019-Dec-12 14:10 118 -3.3
2019-Dec-12 14:05 118 -3.3
2019-Dec-12 14:00 118 -3.3
2019-Dec-12 13:55 148 -3.3
2019-Dec-12 13:50 148 -3.9
2019-Dec-12 13:45 148 -4.4
2019-Dec-12 13:40 148 -4.4
2019-Dec-12 13:35 148 -4.4
2019-Dec-12 13:30 148 -5.0
2019-Dec-12 13:25 148 -5.0
2019-Dec-12 13:20 148 -5.0
2019-Dec-12 13:15 148 -5.6
2019-Dec-12 13:09 148 -5.6
2019-Dec-12 13:04 148 -5.6
2019-Dec-12 12:59 148 -6.1
2019-Dec-12 12:54 148 -6.1
2019-Dec-12 12:49 148 -6.1
2019-Dec-12 12:44 148 -6.1
2019-Dec-12 12:39 148 -6.1
2019-Dec-12 12:34 148 -6.7
2019-Dec-12 12:29 148 -6.7
2019-Dec-12 12:24 148 -6.7
2019-Dec-12 12:19 148 -6.7
2019-Dec-12 12:14 148 -6.7
2019-Dec-12 12:09 148 -6.7
2019-Dec-12 12:04 148 -6.7
2019-Dec-12 11:59 148 -7.2
2019-Dec-12 11:54 148 -7.2
2019-Dec-12 11:49 148 -7.2
2019-Dec-12 11:44 148 -7.2
2019-Dec-12 11:31 148 -7.2
2019-Dec-12 11:26 148 -7.2
2019-Dec-12 11:21 148 -7.2
2019-Dec-12 11:15 148 -7.2
2019-Dec-12 11:10 148 -7.2
2019-Dec-12 11:05 148 -6.7
2019-Dec-12 11:00 148 -6.7
2019-Dec-12 10:45 148 -6.7
2019-Dec-12 10:40 148 -6.7
2019-Dec-12 10:35 148 -6.7
2019-Dec-12 10:29 148 -6.7
2019-Dec-12 10:24 148 -6.7
2019-Dec-12 10:19 148 -7.2
2019-Dec-12 10:14 148 -6.7
2019-Dec-12 10:09 148 -6.7
2019-Dec-12 09:58 148 -6.7
2019-Dec-12 09:53 148 -6.7
2019-Dec-12 09:48 148 -6.1
2019-Dec-12 09:42 148 -6.1
2019-Dec-12 09:37 148 -5.6
2019-Dec-12 09:32 148 -5.6
2019-Dec-12 09:27 148 -5.6
2019-Dec-12 09:12 148 -5.6
2019-Dec-12 09:07 148 -5.6
2019-Dec-12 09:02 148 -5.6
2019-Dec-12 08:56 148 -5.6
2019-Dec-12 08:52 156 -5.0
2019-Dec-12 08:46 156 -5.0
2019-Dec-12 08:41 156 -5.0
2019-Dec-12 08:36 156 -5.0
2019-Dec-12 08:31 156 -5.0
2019-Dec-12 08:26 181 -5.0
2019-Dec-12 08:20 134 -5.0
2019-Dec-12 08:15 134 -5.0
2019-Dec-12 08:10 134 -5.0
2019-Dec-12 08:05 134 -5.0
2019-Dec-12 08:00 129 -5.0
2019-Dec-12 07:55 129 -4.4
2019-Dec-12 07:50 129 -5.0
2019-Dec-12 07:45 138 -5.0
2019-Dec-12 07:39 138 -4.4
2019-Dec-12 07:34 153 -4.4
2019-Dec-12 07:29 154 -4.4
2019-Dec-12 07:24 166 -4.4
2019-Dec-12 07:19 187 -4.4
2019-Dec-12 07:09 139 -4.4
2019-Dec-12 07:04 137 -4.4
2019-Dec-12 06:59 137 -4.4
2019-Dec-12 06:54 137 -4.4
2019-Dec-12 06:49 137 -4.4
2019-Dec-12 06:44 112 -4.4
2019-Dec-12 06:38 144 -4.4
2019-Dec-12 06:33 144 -4.4
2019-Dec-12 06:28 144 -4.4
2019-Dec-12 06:23 144 -4.4
2019-Dec-12 06:17 144 -4.4
2019-Dec-12 06:13 144 -3.9
2019-Dec-12 06:07 144 -3.9
2019-Dec-12 06:02 144 -3.9
2019-Dec-12 05:57 141 -3.9
2019-Dec-12 05:51 141 -3.9
2019-Dec-12 05:46 141 -3.3
2019-Dec-12 05:41 120 -3.9
2019-Dec-12 05:36 112 -3.9
2019-Dec-12 05:31 112 -3.9
2019-Dec-12 05:25 112 -3.9
2019-Dec-12 05:20 148 -3.9
2019-Dec-12 05:15 148 -3.9
2019-Dec-12 05:10 148 -3.9
2019-Dec-12 05:05 148 -3.9
2019-Dec-12 05:00 148 -4.4
2019-Dec-12 04:54 148 -4.4
2019-Dec-12 04:49 148 -4.4
2019-Dec-12 04:44 148 -4.4
2019-Dec-12 04:39 148 -4.4
2019-Dec-12 04:33 148 -3.9
2019-Dec-12 04:28 148 -3.9
2019-Dec-12 04:23 148 -3.9
2019-Dec-12 04:17 148 -3.9
2019-Dec-12 04:12 148 -3.9
2019-Dec-12 04:07 148 -4.4
2019-Dec-12 04:02 148 -4.4
2019-Dec-12 03:57 148 -4.4
2019-Dec-12 03:52 148 -4.4
2019-Dec-12 03:47 148 -3.9
2019-Dec-12 03:42 148 -3.9
2019-Dec-12 03:37 148 -3.9
2019-Dec-12 03:31 148 -3.3
2019-Dec-12 03:26 148 -3.3
2019-Dec-12 03:21 148 -3.3
2019-Dec-12 03:16 148 -3.3
2019-Dec-12 03:11 136 -3.9
2019-Dec-12 03:05 136 -3.3
2019-Dec-12 03:00 136 -3.3
2019-Dec-12 02:55 136 -3.3
2019-Dec-12 02:50 136 -3.3
2019-Dec-12 02:45 136 -3.3
2019-Dec-12 02:40 136 -3.3
2019-Dec-12 02:35 136 -3.3
2019-Dec-12 02:30 138 -3.3
2019-Dec-12 02:25 138 -3.3
2019-Dec-12 02:10 138 -3.3
2019-Dec-12 02:05 137 -3.3
2019-Dec-12 02:00 137 -2.8
2019-Dec-12 01:55 137 -2.8
2019-Dec-12 01:50 098 -2.8
2019-Dec-12 01:44 098 -2.8
2019-Dec-12 01:39 098 -2.8
2019-Dec-12 01:34 098 -2.8
2019-Dec-12 01:29 098 -2.2
2019-Dec-12 01:24 098 -2.2
2019-Dec-12 01:19 098 -2.2
2019-Dec-12 01:14 096 -2.2
2019-Dec-12 01:02 096 -2.2
2019-Dec-12 00:57 096 -2.2
2019-Dec-12 00:51 096 -2.2
2019-Dec-12 00:47 094 -2.2
2019-Dec-12 00:41 094 -2.2
2019-Dec-12 00:36 096 -1.7
2019-Dec-12 00:31 096 -1.7
2019-Dec-12 00:26 096 -1.7
2019-Dec-12 00:21 096 -1.7
2019-Dec-12 00:16 096 -1.7
2019-Dec-12 00:11 096 -1.7
2019-Dec-12 00:06 096 -1.7
2019-Dec-12 00:00 096 -1.7
2019-Dec-11 23:55 096 -1.7
2019-Dec-11 23:50 096 -1.7
2019-Dec-11 23:45 096 -1.7
2019-Dec-11 23:40 096 -1.7
2019-Dec-11 23:35 096 -1.7
2019-Dec-11 23:30 096 -1.7
2019-Dec-11 23:25 096 -1.7
2019-Dec-11 23:19 096 -1.7
2019-Dec-11 23:14 096 -1.1
2019-Dec-11 23:09 096 -1.1
2019-Dec-11 23:04 096 -1.1
2019-Dec-11 22:58 096 -1.1
2019-Dec-11 22:53 096 -1.1
2019-Dec-11 22:48 096 -1.1
2019-Dec-11 22:43 096 -1.1
2019-Dec-11 22:38 095 -1.1
2019-Dec-11 22:33 096 -1.1
2019-Dec-11 22:28 096 -1.1
2019-Dec-11 22:23 096 -1.1
2019-Dec-11 22:18 096 -1.1
2019-Dec-11 22:13 096 -1.1
2019-Dec-11 22:08 096 -1.1
2019-Dec-11 22:03 096 -1.1
2019-Dec-11 21:58 096 -1.1
2019-Dec-11 21:53 096 -1.1
2019-Dec-11 21:47 096 -0.6
2019-Dec-11 21:43 096 -0.6
2019-Dec-11 21:38 096 -0.6
2019-Dec-11 21:32 096 -0.6
2019-Dec-11 21:27 096 -0.6
2019-Dec-11 21:23 096 -0.6
2019-Dec-11 21:18 096 -0.6
2019-Dec-11 21:12 096 -0.6
2019-Dec-11 20:59 096 -0.6
2019-Dec-11 20:54 096 -0.0
2019-Dec-11 20:49 096 -0.0
2019-Dec-11 20:44 096 -0.0
2019-Dec-11 20:38 096 -0.0
2019-Dec-11 20:33 096 -0.0
2019-Dec-11 20:28 096 -0.0
2019-Dec-11 20:23 065 -0.0
2019-Dec-11 20:18 065 -0.0
2019-Dec-11 20:13 065 0.6
2019-Dec-11 20:08 064 0.6
2019-Dec-11 20:02 064 0.6
2019-Dec-11 19:57 064 0.6
2019-Dec-11 19:52 064 0.6
2019-Dec-11 19:47 064 0.6
2019-Dec-11 19:42 064 0.6
2019-Dec-11 19:37 068 1.1
2019-Dec-11 19:32 068 1.1
2019-Dec-11 19:27 068 1.1
2019-Dec-11 19:22 068 1.1
2019-Dec-11 19:17 068 1.1
2019-Dec-11 19:12 068 1.1
2019-Dec-11 19:07 068 1.1
2019-Dec-11 19:01 068 1.1
2019-Dec-11 18:54 068 1.1
2019-Dec-11 18:48 068 0.6
2019-Dec-11 18:43 068 1.1
2019-Dec-11 18:38 068 1.1
2019-Dec-11 18:33 068 1.1
2019-Dec-11 18:28 068 1.1
2019-Dec-11 18:23 068 1.7
2019-Dec-11 18:17 068 1.7
2019-Dec-11 18:12 068 1.7
2019-Dec-11 18:07 068 1.7
2019-Dec-11 18:02 068 1.7
2019-Dec-11 17:57 068 1.7
2019-Dec-11 17:51 068 1.7
2019-Dec-11 17:46 068 1.7
2019-Dec-11 17:41 068 1.7
2019-Dec-11 17:36 068 1.7
2019-Dec-11 17:31 068 1.7
2019-Dec-11 17:26 068 1.7
2019-Dec-11 17:21 068 1.7
2019-Dec-11 17:16 068 1.7
2019-Dec-11 17:10 068 1.7
2019-Dec-11 17:06 068 1.7
2019-Dec-11 17:00 068 1.7
2019-Dec-11 16:55 068 1.7
2019-Dec-11 16:50 068 1.7
2019-Dec-11 16:45 068 1.7
2019-Dec-11 16:39 068 1.7
2019-Dec-11 16:34 068 1.1
2019-Dec-11 16:29 068 1.1
2019-Dec-11 16:24 068 1.1
2019-Dec-11 16:19 068 1.1
2019-Dec-11 16:14 068 1.1
2019-Dec-11 16:09 068 1.1
2019-Dec-11 16:04 068 1.1
2019-Dec-11 15:59 068 1.1
2019-Dec-11 15:54 068 1.1
2019-Dec-11 15:49 068 1.1
2019-Dec-11 15:44 068 1.1
2019-Dec-11 15:39 068 1.1
2019-Dec-11 15:34 068 1.1
2019-Dec-11 15:28 068 0.6
2019-Dec-11 15:23 068 0.6
2019-Dec-11 15:18 068 0.6
2019-Dec-11 15:13 068 0.6
2019-Dec-11 15:08 068 0.6
2019-Dec-11 15:03 068 -0.0
2019-Dec-11 14:58 068 -0.0
2019-Dec-11 14:53 068 -0.0
2019-Dec-11 14:48 068 0.6
2019-Dec-11 14:43 068 0.6
2019-Dec-11 14:38 068 -0.0
2019-Dec-11 14:33 068 -0.0
2019-Dec-11 14:28 068 -0.0
2019-Dec-11 14:23 068 -0.0
2019-Dec-11 14:18 068 -0.6
2019-Dec-11 14:13 068 -0.6
2019-Dec-11 14:08 068 -0.6
2019-Dec-11 14:03 068 -0.6
2019-Dec-11 13:58 068 -0.6
2019-Dec-11 13:53 068 -0.6
2019-Dec-11 13:48 068 -0.6
2019-Dec-11 13:43 068 -0.6
2019-Dec-11 13:38 068 -0.6
2019-Dec-11 13:33 068 -0.6
2019-Dec-11 13:28 068 -0.6
2019-Dec-11 13:23 068 -0.6
2019-Dec-11 13:18 068 -0.6
2019-Dec-11 13:13 068 -1.1
2019-Dec-11 13:08 068 -1.1
2019-Dec-11 13:03 068 -1.1
2019-Dec-11 12:58 154 -1.1
2019-Dec-11 12:53 178 -0.6
2019-Dec-11 12:48 178 -0.6
2019-Dec-11 12:43 178 -0.6
2019-Dec-11 12:38 178 -0.6
2019-Dec-11 12:33 178 -0.6
2019-Dec-11 12:28 178 -0.6
2019-Dec-11 12:23 178 -0.6
2019-Dec-11 12:18 178 -0.6
2019-Dec-11 12:13 178 -0.6
2019-Dec-11 12:08 178 -0.6
2019-Dec-11 12:03 178 -0.6